sat.trackr.live / text

‹ back to catalog

STARLINK-31174

NORAD 58808 · 2024-012X

PAYLOAD ACTIVE UNKNOWN

§ Identity

Operator
Country
US
Launch date
2024-01-15
Launch site
AFETR
Launch vehicle
Mass (kg)
RCS (m²)

Purposes: comms

External: N2YO · Heavens-Above · Gunter

§ Orbital elements

Epoch: 2026-09-20T08:45:25.305408Z

Period
94.27 min
Inclination
43.0001°
Eccentricity
0.0001103
Mean motion
15.27572967 rev/d
Perigee alt
482.3 km
Apogee alt
483.8 km
Semi-major
6,861.2 km
B*
2.2094e-5
RAAN
145.4197°
Arg perigee
273.7154°
Mean anomaly
86.3571°
Rev number
15,101

§ Raw data

STARLINK-311741 58808U 24012X   26263.36487622  .00000346  00000+0  22094-4 0  99982 58808  43.0001 145.4197 0001103 273.7154  86.3571 15.27572967151013

JSON: /api/v1/satellites/58808 · /tle

For live sub-satellite position, see the globe view (requires WebGL).

§ Visibility from observer

Set your observer location to see the next 7 days of passes ≥ 10°. The values pass through the URL so the page stays shareable.

No JS? Fill the form by hand. The geolocation button needs JavaScript.